Location: Stuttgart
(48.8069°N, 9.1544°E)
Time: 12:38:13
(UTC+01:00)

ISS - Pass Details

Date: 08 January 2018
Orbit: 402 x 407 km, 51.6° (Epoch: 18 January)

Event Time Altitude Azimuth Distance (km) Brightness Sun altitude
Exits shadow 05:06:13 12° 70° (ENE) 1,331 -0.5 -30.2°
Drops below altitude 10° 05:06:34 10° 71° (ENE) 1,470 -0.2 -30.1°
Sets 05:08:41 0° 77° (ENE) 2,332 1.1 -29.8°
